Epoch,demod_status_bits,ebno,lock_status,signal_level,viterbi_ber
1664828209,,14.0,0x00c000,-37.9,
1664828210,C;S;V;F,13.1,0x00c000,-38.8,0.00e-0
1664828211,C;S;V;F,,0x00c000,-38.6,1.51e-7
1664828212,C;S;V;F,13.5,0x00c000,-37.7,1.51e-7
1664828213,C;S;V;F,14.0,0x00c000,,0.00e-0
1664828214,C;S;V;F,13.9,0x00c000,-38.3,0.00e-0
1664828215,C;S;V;F,13.2,0x00c000,-38.4,0.00e-0
1664828216,C;S;V;F,13.7,0x00c000,-38.1,0.00e-0
1664828217,C;S;V;F,13.9,0x00c000,-37.7,0.00e-0
1664828218,C;S;V;F,14.4,0x00c000,-37.6,0.00e-0
1664828219,C;S;V;F,13.9,0x00c000,-38.3,0.00e-0
1664828220,C;S;V;F,14.5,0x00c000,-37.5,0.00e-0
1664828221,C;S;V;F,14.2,0x00c000,-38.2,0.00e-0
1664828222,C;S;V;F,13.6,0x00c000,-38.0,
1664828223,,14.5,0x00c000,-37.5,0.00e-0
1664828224,C;S;V;F,15.4,0x00c000,-36.4,0.00e-0
1664828225,C;S;V;F,15.4,0x00c000,-36.4,0.00e-0
1664828226,C;S;V;F,,0x00c000,,0.00e-0
1664828228,C;S;V;F,14.7,0x00c000,-37.7,
1664828229,,12.8,0x00c000,-39.4,0.00e-0
1664828230,C;S;V;F,13.9,0x00c000,-38.2,3.03e-7
1664828231,C;S;V;F,13.8,0x00c000,-37.9,3.03e-7
1664828232,C;S;V;F,14.7,0x00c000,-37.4,0.00e-0
1664828233,C;S;V;F,,0x00c000,-37.1,0.00e-0
1664828234,C;S;V;F,15.4,0x00c000,-36.6,0.00e-0
1664828235,C;S;V;F,15.4,0x00c000,,0.00e-0
1664828236,C;S;V;F,14.6,0x00c000,-37.6,0.00e-0
1664828237,C;S;V;F,14.5,0x00c000,-37.3,0.00e-0
1664828238,C;S;V;F,14.4,0x00c000,-37.5,0.00e-0
1664828239,C;S;V;F,14.6,0x00c000,-37.6,0.00e-0
1664828240,C;S;V;F,14.9,0x00c000,-36.6,0.00e-0
1664828241,C;S;V;F,15.1,0x00c000,-37.2,0.00e-0
1664828242,C;S;V;F,14.7,0x00c000,-37.3,0.00e-0
1664828243,C;S;V;F,14.9,0x00c000,-37.2,0.00e-0
1664828244,C;S;V;F,15.3,0x00c000,-36.6,0.00e-0
1664828245,C;S;V;F,15.2,0x00c000,-36.8,0.00e-0
1664828246,,15.2,0x00c000,-37.2,
1664828247,C;S;V;F,13.8,0x00c000,-38.4,0.00e-0
1664828248,C;S;V;F,14.5,0x00c000,-37.5,0.00e-0
1664828249,C;S;V;F,14.2,0x00c000,-38.4,0.00e-0
1664828250,C;S;V;F,,0x00c000,-37.2,0.00e-0
1664828251,C;S;V;F,14.4,0x00c000,-38.0,0.00e-0
1664828252,C;S;V;F,14.6,0x00c000,,0.00e-0
1664828253,C;S;V;F,14.4,0x00c000,-36.8,0.00e-0
1664828254,C;S;V;F,14.9,0x00c000,-36.8,0.00e-0
1664828255,C;S;V;F,14.5,0x00c000,-37.9,0.00e-0
1664828256,C;S;V;F,14.8,0x00c000,-37.2,0.00e-0
1664828257,C;S;V;F,15.0,0x00c000,-37.2,0.00e-0
1664828258,C;S;V;F,14.9,0x00c000,-37.3,0.00e-0
1664828259,C;S;V;F,14.8,0x00c000,-37.4,0.00e-0
1664828260,C;S;V;F,15.0,0x00c000,-37.3,
1664828261,,14.8,0x00c000,-37.4,0.00e-0
1664828262,C;S;V;F,15.2,0x00c000,-37.2,0.00e-0
1664828263,C;S;V;F,15.1,0x00c000,-37.1,0.00e-0
1664828264,C;S;V;F,14.6,0x00c000,-37.2,0.00e-0
1664828265,C;S;V;F,15.4,0x00c000,-37.0,0.00e-0
1664828266,C;S;V;F,,0x00c000,-37.7,0.00e-0
1664828267,C;S;V;F,14.4,0x00c000,,0.00e-0
1664828268,C;S;V;F,14.5,0x00c000,-37.9,0.00e-0
1664828269,C;S;V;F,15.8,0x00c000,-36.4,0.00e-0
1664828270,C;S;V;F,15.0,0x00c000,-37.3,0.00e-0
1664828271,C;S;V;F,15.2,0x00c000,-36.9,0.00e-0
1664828272,C;S;V;F,15.6,0x00c000,-36.5,0.00e-0
1664828273,C;S;V;F,15.5,0x00c000,-36.7,0.00e-0
1664828274,C;S;V;F,15.3,0x00c000,-36.4,0.00e-0
1664828275,C;S;V;F,15.2,0x00c000,-36.9,0.00e-0
1664828276,C;S;V;F,15.9,0x00c000,-36.2,0.00e-0
1664828277,C;S;V;F,15.6,0x00c000,-36.7,0.00e-0
1664828278,C;S;V;F,15.8,0x00c000,-35.9,0.00e-0
1664828279,C;S;V;F,16.4,0x00c000,-35.8,0.00e-0
1664828280,C;S;V;F,16.2,0x00c000,-36.0,0.00e-0
1664828281,C;S;V;F,16.1,0x00c000,-36.0,0.00e-0
1664828282,C;S;V;F,16.1,0x00c000,-36.0,
1664828283,,15.7,0x00c000,-36.0,0.00e-0
1664828284,C;S;V;F,15.8,0x00c000,-36.4,0.00e-0
1664828285,C;S;V;F,16.2,0x00c000,-36.1,0.00e-0
1664828286,C;S;V;F,,0x00c000,-36.3,0.00e-0
1664828287,C;S;V;F,15.8,0x00c000,-36.4,0.00e-0
1664828288,C;S;V;F,15.7,0x00c000,,0.00e-0
1664828289,C;S;V;F,15.8,0x00c000,-36.3,0.00e-0
1664828291,C;S;V;F,16.1,0x00c000,-35.7,0.00e-0
1664828292,C;S;V;F,16.3,0x00c000,-36.0,0.00e-0
1664828293,C;S;V;F,16.0,0x00c000,-36.1,
1664828294,,16.2,0x00c000,-35.7,0.00e-0
1664828295,C;S;V;F,16.2,0x00c000,-35.9,0.00e-0
1664828296,C;S;V;F,16.0,0x00c000,-36.0,0.00e-0
1664828297,C;S;V;F,,0x00c000,-36.4,0.00e-0
1664828298,C;S;V;F,16.1,0x00c000,-36.2,0.00e-0
1664828299,C;S;V;F,15.8,0x00c000,,0.00e-0
1664828300,C;S;V;F,15.8,0x00c000,-36.4,0.00e-0
1664828301,C;S;V;F,15.7,0x00c000,-36.4,0.00e-0
1664828302,C;S;V;F,16.1,0x00c000,-36.2,0.00e-0
1664828303,C;S;V;F,16.1,0x00c000,-36.0,0.00e-0
1664828304,C;S;V;F,16.2,0x00c000,-36.4,0.00e-0
1664828305,C;S;V;F,15.9,0x00c000,-36.6,0.00e-0
1664828306,C;S;V;F,15.4,0x00c000,-36.4,0.00e-0
1664828307,C;S;V;F,15.7,0x00c000,-36.3,0.00e-0
1664828308,C;S;V;F,16.0,0x00c000,-36.2,0.00e-0
1664828309,C;S;V;F,16.3,0x00c000,-35.9,0.00e-0
1664828310,,16.0,0x00c000,-36.0,
1664828311,C;S;V;F,16.1,0x00c000,-36.0,0.00e-0
1664828312,C;S;V;F,16.7,0x00c000,-35.4,0.00e-0
1664828313,C;S;V;F,16.3,0x00c000,-35.7,0.00e-0
1664828314,C;S;V;F,,0x00c000,-35.8,0.00e-0
1664828315,C;S;V;F,16.1,0x00c000,-36.1,0.00e-0
1664828316,C;S;V;F,16.3,0x00c000,-36.2,0.00e-0
1664828317,C;S;V;F,15.9,0x00c000,,0.00e-0
1664828318,C;S;V;F,16.4,0x00c000,-36.0,0.00e-0
1664828319,C;S;V;F,15.9,0x00c000,-36.3,0.00e-0
1664828320,C;S;V;F,15.9,0x00c000,-36.3,0.00e-0
1664828321,C;S;V;F,15.8,0x00c000,-36.4,0.00e-0
1664828322,C;S;V;F,15.6,0x00c000,-36.7,0.00e-0
1664828323,C;S;V;F,15.7,0x00c000,-36.5,0.00e-0
1664828324,C;S;V;F,15.7,0x00c000,-36.4,0.00e-0
1664828325,C;S;V;F,15.8,0x00c000,-36.5,0.00e-0
1664828326,C;S;V;F,15.6,0x00c000,-36.4,0.00e-0
1664828327,C;S;V;F,15.7,0x00c000,-36.4,
1664828328,,15.8,0x00c000,-36.8,0.00e-0
1664828329,C;S;V;F,15.3,0x00c000,-36.9,0.00e-0
1664828330,C;S;V;F,15.5,0x00c000,-36.9,0.00e-0
1664828331,C;S;V;F,15.5,0x00c000,-36.6,0.00e-0
1664828332,C;S;V;F,,0x00c000,-36.8,0.00e-0
1664828333,C;S;V;F,15.6,0x00c000,-37.2,0.00e-0
1664828334,C;S;V;F,15.4,0x00c000,-36.9,0.00e-0
1664828335,C;S;V;F,15.5,0x00c000,,0.00e-0
1664828336,C;S;V;F,15.4,0x00c000,-36.9,0.00e-0
1664828337,C;S;V;F,15.1,0x00c000,-37.0,0.00e-0
1664828338,C;S;V;F,15.1,0x00c000,-37.1,0.00e-0
1664828339,C;S;V;F,15.2,0x00c000,-37.3,0.00e-0
1664828340,C;S;V;F,15.1,0x00c000,-37.3,0.00e-0
1664828341,C;S;V;F,15.1,0x00c000,-37.2,0.00e-0
1664828342,C;S;V;F,14.9,0x00c000,-37.6,0.00e-0
1664828343,C;S;V;F,14.8,0x00c000,-37.6,0.00e-0
1664828344,C;S;V;F,15.0,0x00c000,-37.4,0.00e-0
1664828345,C;S;V;F,15.2,0x00c000,-37.2,
1664828346,,15.2,0x00c000,-37.4,0.00e-0
1664828347,C;S;V;F,14.7,0x00c000,-37.9,0.00e-0
1664828348,C;S;V;F,14.7,0x00c000,-37.5,0.00e-0
1664828349,C;S;V;F,15.2,0x00c000,-37.2,0.00e-0
1664828350,C;S;V;F,15.1,0x00c000,-37.5,0.00e-0
1664828351,C;S;V;F,,0x00c000,,0.00e-0
1664828353,C;S;V;F,15.0,0x00c000,-37.8,0.00e-0
1664828354,C;S;V;F,14.8,0x00c000,-37.6,0.00e-0
1664828355,C;S;V;F,15.1,0x00c000,-37.6,0.00e-0
1664828356,C;S;V;F,14.9,0x00c000,-37.6,0.00e-0
1664828357,C;S;V;F,14.7,0x00c000,-37.6,0.00e-0
1664828361,,14.8,0x00c000,-37.6,
1664828362,C;S;V;F,14.8,0x00c000,-37.2,0.00e-0
1664828363,C;S;V;F,,0x00c000,-37.4,0.00e-0
1664828364,C;S;V;F,15.0,0x00c000,-37.8,0.00e-0
1664828365,C;S;V;F,14.7,0x00c000,,0.00e-0
1664828366,C;S;V;F,14.9,0x00c000,-37.9,0.00e-0
1664828367,C;S;V;F,14.9,0x00c000,-37.5,0.00e-0
1664828368,C;S;V;F,15.0,0x00c000,-37.5,0.00e-0
1664828369,C;S;V;F,14.9,0x00c000,-37.8,0.00e-0
1664828370,C;S;V;F,14.6,0x00c000,-38.1,0.00e-0
1664828371,C;S;V;F,14.4,0x00c000,-38.0,0.00e-0
1664828372,C;S;V;F,14.6,0x00c000,-38.1,0.00e-0
1664828373,C;S;V;F,14.1,0x00c000,-38.3,0.00e-0
1664828374,C;S;V;F,14.4,0x00c000,-38.1,0.00e-0
1664828375,C;S;V;F,14.4,0x00c000,-37.9,
1664828376,,14.5,0x00c000,-38.0,0.00e-0
1664828377,C;S;V;F,14.5,0x00c000,-38.0,0.00e-0
1664828378,C;S;V;F,14.8,0x00c000,-37.6,0.00e-0
1664828379,C;S;V;F,14.7,0x00c000,-37.9,0.00e-0
1664828380,C;S;V;F,,0x00c000,-37.8,0.00e-0
1664828381,C;S;V;F,14.6,0x00c000,,0.00e-0
1664828382,C;S;V;F,14.8,0x00c000,-37.8,0.00e-0
1664828383,C;S;V;F,15.0,0x00c000,-37.4,0.00e-0
1664828384,C;S;V;F,14.6,0x00c000,-37.8,0.00e-0
1664828385,C;S;V;F,14.4,0x00c000,-38.0,0.00e-0
1664828386,C;S;V;F,14.8,0x00c000,-37.9,0.00e-0
1664828387,C;S;V;F,14.9,0x00c000,-37.8,0.00e-0
1664828388,C;S;V;F,14.8,0x00c000,-37.8,0.00e-0
1664828389,C;S;V;F,14.9,0x00c000,-37.7,0.00e-0
1664828390,C;S;V;F,14.9,0x00c000,-37.9,0.00e-0
1664828391,C;S;V;F,14.6,0x00c000,-37.9,
1664828392,,14.4,0x00c000,-37.9,0.00e-0
1664828393,C;S;V;F,15.0,0x00c000,-37.6,0.00e-0
1664828394,C;S;V;F,14.9,0x00c000,-37.8,0.00e-0
1664828395,C;S;V;F,,0x00c000,-37.4,0.00e-0
1664828396,C;S;V;F,14.9,0x00c000,-37.2,0.00e-0
1664828397,C;S;V;F,15.2,0x00c000,,0.00e-0
1664828398,C;S;V;F,15.5,0x00c000,-36.8,0.00e-0
1664828399,C;S;V;F,15.5,0x00c000,-36.9,0.00e-0
1664828400,C;S;V;F,15.5,0x00c000,-36.9,0.00e-0
1664828401,C;S;V;F,15.6,0x00c000,-37.0,0.00e-0
1664828402,C;S;V;F,15.4,0x00c000,-37.0,0.00e-0
1664828403,C;S;V;F,15.5,0x00c000,-37.0,0.00e-0
1664828404,C;S;V;F,15.5,0x00c000,-37.1,0.00e-0
1664828405,C;S;V;F,15.6,0x00c000,-36.8,0.00e-0
1664828406,C;S;V;F,15.7,0x00c000,-36.4,0.00e-0
1664828407,C;S;V;F,15.8,0x00c000,-37.1,0.00e-0
1664828408,,,0x00c000,-36.5,
1664828409,C;S;V;F,15.6,0x00c000,,0.00e-0
1664828410,C;S;V;F,15.9,0x00c000,-36.3,0.00e-0
1664828411,C;S;V;F,15.7,0x00c000,-36.4,0.00e-0
1664828412,C;S;V;F,16.0,0x00c000,-36.3,0.00e-0
1664828413,C;S;V;F,16.2,0x00c000,-36.3,0.00e-0
1664828414,C;S;V;F,15.9,0x00c000,-36.4,0.00e-0
1664828416,,15.9,0x00c000,-36.4,
1664828417,C;S;V;F,15.7,0x00c000,-36.6,0.00e-0
1664828418,C;S;V;F,,0x00c000,-36.8,0.00e-0
1664828419,C;S;V;F,15.8,0x00c000,,0.00e-0
1664828420,C;S;V;F,15.7,0x00c000,-36.9,0.00e-0
1664828421,C;S;V;F,15.7,0x00c000,-37.1,0.00e-0
1664828422,C;S;V;F,15.3,0x00c000,-37.1,0.00e-0
1664828423,C;S;V;F,15.2,0x00c000,-37.2,0.00e-0
1664828424,C;S;V;F,15.2,0x00c000,-37.5,0.00e-0
1664828425,C;S;V;F,15.0,0x00c000,-37.6,0.00e-0
1664828426,C;S;V;F,14.8,0x00c000,-37.4,0.00e-0
1664828427,C;S;V;F,14.9,0x00c000,-37.6,0.00e-0
1664828428,C;S;V;F,14.9,0x00c000,-37.6,0.00e-0
1664828429,C;S;V;F,15.2,0x00c000,-37.5,
1664828430,,15.0,0x00c000,-37.5,0.00e-0
1664828431,C;S;V;F,15.0,0x00c000,-37.5,0.00e-0
1664828432,C;S;V;F,14.9,0x00c000,-37.6,0.00e-0
1664828433,C;S;V;F,,0x00c000,-37.8,0.00e-0
1664828434,C;S;V;F,14.8,0x00c000,-37.9,0.00e-0
1664828435,C;S;V;F,14.7,0x00c000,,0.00e-0
1664828436,C;S;V;F,14.5,0x00c000,-37.7,0.00e-0
1664828437,C;S;V;F,15.0,0x00c000,-37.5,0.00e-0
1664828438,C;S;V;F,14.9,0x00c000,-37.5,0.00e-0
1664828439,C;S;V;F,15.1,0x00c000,-37.4,0.00e-0
1664828440,C;S;V;F,15.3,0x00c000,-37.5,0.00e-0
1664828441,C;S;V;F,15.4,0x00c000,-37.2,0.00e-0
1664828442,C;S;V;F,15.3,0x00c000,-37.6,0.00e-0
1664828443,C;S;V;F,15.1,0x00c000,-37.7,0.00e-0
1664828444,C;S;V;F,15.0,0x00c000,-37.5,0.00e-0
1664828445,C;S;V;F,15.0,0x00c000,-37.4,0.00e-0
1664828446,C;S;V;F,15.3,0x00c000,-37.3,0.00e-0
1664828447,C;S;V;F,15.2,0x00c000,-37.2,
1664828448,,15.3,0x00c000,-37.3,0.00e-0
1664828449,C;S;V;F,15.2,0x00c000,-37.4,0.00e-0
1664828450,C;S;V;F,15.3,0x00c000,-37.3,0.00e-0
1664828451,C;S;V;F,,0x00c000,-37.2,0.00e-0
1664828452,C;S;V;F,15.3,0x00c000,-37.3,0.00e-0
1664828453,C;S;V;F,15.3,0x00c000,-37.5,0.00e-0
1664828454,C;S;V;F,15.3,0x00c000,,0.00e-0
1664828455,C;S;V;F,14.9,0x00c000,-37.3,0.00e-0
1664828456,C;S;V;F,15.1,0x00c000,-37.2,0.00e-0
1664828457,C;S;V;F,15.3,0x00c000,-37.2,0.00e-0
1664828458,C;S;V;F,15.3,0x00c000,-37.2,0.00e-0
1664828459,C;S;V;F,15.2,0x00c000,-37.2,0.00e-0
1664828460,C;S;V;F,15.3,0x00c000,-37.2,0.00e-0
1664828461,C;S;V;F,15.4,0x00c000,-36.9,0.00e-0
1664828462,C;S;V;F,15.7,0x00c000,-37.1,0.00e-0
1664828463,C;S;V;F,15.3,0x00c000,-37.2,0.00e-0
1664828464,C;S;V;F,15.5,0x00c000,-37.0,0.00e-0
1664828465,C;S;V;F,15.8,0x00c000,-36.8,0.00e-0
1664828466,C;S;V;F,15.7,0x00c000,-36.8,
1664828467,,15.5,0x00c000,-37.0,0.00e-0
1664828468,C;S;V;F,15.5,0x00c000,-37.2,0.00e-0
1664828469,C;S;V;F,,0x00c000,-37.1,0.00e-0
1664828470,C;S;V;F,15.3,0x00c000,-36.8,0.00e-0
1664828471,C;S;V;F,15.6,0x00c000,,0.00e-0
1664828472,C;S;V;F,15.5,0x00c000,-37.3,0.00e-0
1664828473,C;S;V;F,15.3,0x00c000,-36.9,0.00e-0
1664828474,C;S;V;F,15.5,0x00c000,-36.8,0.00e-0
1664828475,C;S;V;F,15.9,0x00c000,-36.7,0.00e-0
1664828476,C;S;V;F,16.0,0x00c000,-36.5,0.00e-0
1664828477,C;S;V;F,15.9,0x00c000,-36.4,0.00e-0
1664828479,C;S;V;F,16.1,0x00c000,-36.6,
1664828480,,15.9,0x00c000,-36.4,0.00e-0
1664828481,C;S;V;F,15.9,0x00c000,-36.4,0.00e-0
1664828482,C;S;V;F,15.9,0x00c000,-36.5,0.00e-0
1664828483,C;S;V;F,,0x00c000,-36.6,0.00e-0
1664828484,C;S;V;F,15.7,0x00c000,-36.8,0.00e-0
1664828485,C;S;V;F,15.7,0x00c000,-36.5,0.00e-0
1664828486,C;S;V;F,15.9,0x00c000,,0.00e-0
1664828487,C;S;V;F,16.2,0x00c000,-36.4,0.00e-0
1664828488,C;S;V;F,16.0,0x00c000,-36.2,0.00e-0
1664828489,C;S;V;F,16.4,0x00c000,-36.1,0.00e-0
1664828490,C;S;V;F,16.4,0x00c000,-36.0,0.00e-0
1664828491,C;S;V;F,16.2,0x00c000,-36.1,0.00e-0
1664828492,C;S;V;F,16.5,0x00c000,-35.9,0.00e-0
1664828493,C;S;V;F,16.4,0x00c000,-36.1,0.00e-0
1664828494,C;S;V;F,16.1,0x00c000,-36.2,0.00e-0
1664828495,C;S;V;F,16.4,0x00c000,-36.2,0.00e-0
1664828496,C;S;V;F,16.2,0x00c000,-36.2,0.00e-0
1664828497,C;S;V;F,16.4,0x00c000,-36.2,0.00e-0
1664828498,C;S;V;F,16.3,0x00c000,-36.0,0.00e-0
1664828499,C;S;V;F,16.4,0x00c000,-36.0,
1664828500,,16.3,0x00c000,-36.0,0.00e-0
1664828501,C;S;V;F,16.5,0x00c000,-35.7,0.00e-0
1664828502,C;S;V;F,16.6,0x00c000,-35.6,0.00e-0
1664828503,C;S;V;F,16.7,0x00c000,-35.7,0.00e-0
1664828504,C;S;V;F,16.8,0x00c000,-35.6,0.00e-0
1664828505,C;S;V;F,,0x00c000,-35.7,0.00e-0
1664828506,C;S;V;F,16.6,0x00c000,-35.6,0.00e-0
1664828507,C;S;V;F,16.9,0x00c000,-35.6,0.00e-0
1664828508,C;S;V;F,16.6,0x00c000,,0.00e-0
1664828509,C;S;V;F,16.6,0x00c000,-35.6,0.00e-0
1664828510,C;S;V;F,16.7,0x00c000,-35.5,0.00e-0
1664828511,C;S;V;F,16.6,0x00c000,-35.6,0.00e-0
1664828512,C;S;V;F,16.8,0x00c000,-35.5,0.00e-0
1664828513,C;S;V;F,16.7,0x00c000,-35.7,0.00e-0
1664828514,C;S;V;F,16.5,0x00c000,-35.9,0.00e-0
1664828515,C;S;V;F,16.4,0x00c000,-36.0,0.00e-0
1664828516,C;S;V;F,16.5,0x00c000,-35.9,0.00e-0
1664828517,C;S;V;F,16.4,0x00c000,-36.1,
1664828518,,16.0,0x00c000,-36.1,0.00e-0
1664828519,C;S;V;F,16.1,0x00c000,-36.0,0.00e-0
1664828520,C;S;V;F,,0x00c000,-35.9,0.00e-0
1664828521,C;S;V;F,16.3,0x00c000,-35.9,0.00e-0
1664828522,C;S;V;F,16.4,0x00c000,-35.9,0.00e-0
1664828523,C;S;V;F,16.6,0x00c000,,0.00e-0
1664828524,C;S;V;F,16.4,0x00c000,-36.3,0.00e-0
1664828525,C;S;V;F,16.3,0x00c000,-36.2,0.00e-0
1664828526,C;S;V;F,16.0,0x00c000,-36.2,0.00e-0
1664828527,C;S;V;F,16.5,0x00c000,-36.0,0.00e-0
1664828528,C;S;V;F,16.2,0x00c000,-36.2,0.00e-0
1664828529,C;S;V;F,16.5,0x00c000,-35.7,0.00e-0
1664828530,C;S;V;F,16.8,0x00c000,-35.5,0.00e-0
1664828531,C;S;V;F,16.8,0x00c000,-35.6,0.00e-0
1664828532,C;S;V;F,16.6,0x00c000,-35.6,0.00e-0
1664828533,C;S;V;F,16.7,0x00c000,-35.8,0.00e-0
1664828534,C;S;V;F,16.4,0x00c000,-35.9,
1664828535,,16.4,0x00c000,-36.0,0.00e-0
1664828536,C;S;V;F,16.0,0x00c000,-36.2,0.00e-0
1664828537,C;S;V;F,16.2,0x00c000,-36.4,0.00e-0
1664828538,C;S;V;F,,0x00c000,-36.3,0.00e-0
1664828539,C;S;V;F,16.3,0x00c000,-36.3,0.00e-0
1664828540,C;S;V;F,16.1,0x00c000,,0.00e-0
1664828542,C;S;V;F,16.1,0x00c000,-36.4,0.00e-0
1664828543,C;S;V;F,16.4,0x00c000,-35.9,0.00e-0
1664828544,C;S;V;F,16.4,0x00c000,-35.8,0.00e-0
1664828545,,16.6,0x00c000,-35.8,
1664828546,C;S;V;F,16.7,0x00c000,-35.5,0.00e-0
1664828547,C;S;V;F,16.8,0x00c000,-35.2,0.00e-0
1664828548,C;S;V;F,16.9,0x00c000,-35.5,0.00e-0
1664828549,C;S;V;F,16.8,0x00c000,-35.3,0.00e-0
1664828550,C;S;V;F,,0x00c000,-35.1,0.00e-0
1664828551,C;S;V;F,16.9,0x00c000,,0.00e-0
1664828552,C;S;V;F,17.0,0x00c000,-35.1,0.00e-0
1664828553,C;S;V;F,17.0,0x00c000,-35.1,0.00e-0
1664828554,C;S;V;F,17.0,0x00c000,-35.3,0.00e-0
1664828555,C;S;V;F,16.9,0x00c000,-35.1,0.00e-0
1664828556,C;S;V;F,16.8,0x00c000,-35.3,0.00e-0
1664828557,C;S;V;F,16.9,0x00c000,-35.3,0.00e-0
1664828558,C;S;V;F,16.9,0x00c000,-35.3,
1664828559,,16.8,0x00c000,-35.6,0.00e-0
1664828560,C;S;V;F,16.5,0x00c000,-35.9,0.00e-0
1664828561,C;S;V;F,16.6,0x00c000,-35.8,0.00e-0
1664828562,C;S;V;F,,0x00c000,-35.9,0.00e-0
1664828563,C;S;V;F,16.3,0x00c000,-35.3,0.00e-0
1664828564,C;S;V;F,16.8,0x00c000,-35.1,0.00e-0
1664828565,C;S;V;F,16.8,0x00c000,,0.00e-0
1664828566,C;S;V;F,16.8,0x00c000,-35.6,0.00e-0
1664828567,C;S;V;F,16.8,0x00c000,-35.4,0.00e-0
1664828568,C;S;V;F,17.0,0x00c000,-35.0,0.00e-0
1664828569,C;S;V;F,17.0,0x00c000,-35.2,0.00e-0
1664828570,C;S;V;F,17.0,0x00c000,-35.2,0.00e-0
1664828571,C;S;V;F,16.7,0x00c000,-35.5,0.00e-0
1664828572,C;S;V;F,16.9,0x00c000,-35.6,0.00e-0
1664828573,C;S;V;F,16.9,0x00c000,-35.3,0.00e-0
1664828574,C;S;V;F,17.0,0x00c000,-35.2,0.00e-0
1664828575,C;S;V;F,16.9,0x00c000,-35.2,0.00e-0
1664828576,C;S;V;F,16.7,0x00c000,-35.4,
1664828577,C;S;V;F,16.6,0x00c000,-35.6,0.00e-0
1664828578,,16.7,0x00c000,-35.6,0.00e-0
1664828579,C;S;V;F,16.7,0x00c000,-35.6,0.00e-0
1664828580,C;S;V;F,,0x00c000,-35.4,0.00e-0
1664828581,C;S;V;F,16.7,0x00c000,-35.3,0.00e-0
1664828582,C;S;V;F,17.2,0x00c000,,0.00e-0
1664828583,C;S;V;F,16.9,0x00c000,-35.2,0.00e-0
1664828584,C;S;V;F,16.6,0x00c000,-35.3,0.00e-0
1664828585,C;S;V;F,16.8,0x00c000,-35.4,0.00e-0
1664828586,C;S;V;F,16.9,0x00c000,-35.0,0.00e-0
1664828587,C;S;V;F,16.5,0x00c000,-35.5,0.00e-0
1664828588,C;S;V;F,16.6,0x00c000,-35.2,0.00e-0
1664828589,C;S;V;F,16.8,0x00c000,-35.3,0.00e-0
1664828590,C;S;V;F,16.7,0x00c000,-35.4,0.00e-0
1664828591,C;S;V;F,16.7,0x00c000,-35.3,0.00e-0
1664828592,C;S;V;F,16.8,0x00c000,-35.5,
1664828593,,16.8,0x00c000,-35.5,0.00e-0
1664828594,C;S;V;F,16.6,0x00c000,-35.5,0.00e-0
1664828595,C;S;V;F,,0x00c000,-35.5,0.00e-0
1664828596,C;S;V;F,16.6,0x00c000,-36.2,0.00e-0
1664828597,C;S;V;F,16.1,0x00c000,,0.00e-0
1664828598,C;S;V;F,16.2,0x00c000,-36.1,0.00e-0
1664828599,C;S;V;F,16.3,0x00c000,-36.1,0.00e-0
1664828600,C;S;V;F,16.0,0x00c000,-36.1,0.00e-0
1664828601,C;S;V;F,15.9,0x00c000,-36.4,0.00e-0
1664828602,C;S;V;F,16.0,0x00c000,-36.2,0.00e-0
1664828605,C;S;V;F,16.1,0x00c000,-36.3,0.00e-0
1664828606,C;S;V;F,16.0,0x00c000,-36.3,0.00e-0
1664828607,C;S;V;F,15.5,0x00c000,-37.2,0.00e-0
1664828608,C;S;V;F,14.7,0x00c000,-37.6,0.00e-0
1664828609,C;S;V;F,14.7,0x00c000,-37.7,0.00e-0
1664828610,C;S;V;F,15.2,0x00c000,-37.5,0.00e-0
1664828611,C;S;V;F,15.1,0x00c000,-37.4,0.00e-0
1664828612,C;S;V;F,15.1,0x00c000,-37.3,0.00e-0
1664828613,C;S;V;F,15.0,0x00c000,-37.4,0.00e-0
1664828614,C;S;V;F,15.3,0x00c000,-37.1,0.00e-0
1664828615,C;S;V;F,15.2,0x00c000,-37.1,0.00e-0
1664828616,C;S;V;F,15.1,0x00c000,-37.2,0.00e-0
1664828617,C;S;V;F,15.3,0x00c000,-37.2,0.00e-0
1664828618,,15.3,0x00c000,-36.8,
1664828619,C;S;V;F,15.1,0x00c000,-37.5,0.00e-0
1664828620,C;S;V;F,14.8,0x00c000,-37.9,0.00e-0
1664828621,C;S;V;F,14.4,0x00c000,-38.3,0.00e-0
1664828622,C;S;V;F,,0x00c000,-38.6,0.00e-0
1664828623,C;S;V;F,14.0,0x00c000,,0.00e-0
1664828624,C;S;V;F,13.9,0x00c000,-38.6,0.00e-0
1664828625,C;S;V;F,13.8,0x00c000,-38.7,0.00e-0
1664828626,C;S;V;F,13.9,0x00c000,-38.8,0.00e-0
1664828627,C;S;V;F,13.6,0x00c000,-38.8,0.00e-0
1664828628,C;S;V;F,13.3,0x00c000,-39.0,0.00e-0
1664828629,C;S;V;F,13.3,0x00c000,-39.3,0.00e-0
1664828630,C;S;V;F,12.6,0x00c000,-39.8,3.03e-7
1664828631,C;S;V;F,12.2,0x00c000,-40.1,1.05e-6
1664828632,C;S;V;F,12.3,0x00c000,-39.7,1.51e-6
1664828633,C;S;V;F,12.2,0x00c000,-40.1,
1664828634,,12.5,0x00c000,-39.6,1.36e-6
1664828635,C;S;V;F,12.7,0x00c000,-39.6,1.36e-6
1664828636,C;S;V;F,13.0,0x00c000,-39.3,4.54e-7
1664828637,C;S;V;F,,0x00c000,-39.0,3.03e-7
1664828638,C;S;V;F,13.4,0x00c000,-39.1,0.00e-0
1664828639,C;S;V;F,13.3,0x00c000,,0.00e-0
1664828640,C;S;V;F,13.3,0x00c000,-38.9,0.00e-0
1664828641,C;S;V;F,13.2,0x00c000,-39.1,0.00e-0
1664828642,C;S;V;F,13.4,0x00c000,-38.7,1.51e-7
1664828643,C;S;V;F,13.4,0x00c000,-39.1,0.00e-0
1664828644,C;S;V;F,13.5,0x00c000,-38.8,0.00e-0
1664828645,C;S;V;F,13.4,0x00c000,-38.9,0.00e-0
1664828646,C;S;V;F,13.1,0x00c000,-39.6,
1664828647,C;S;V;F,13.1,0x00c000,-39.2,1.51e-7
1664828648,,13.0,0x00c000,-39.5,1.51e-7
1664828649,C;S;V;F,12.7,0x00c000,-39.6,1.51e-7
1664828650,C;S;V;F,12.3,0x00c000,-39.8,4.54e-7
1664828651,C;S;V;F,12.1,0x00c000,-40.0,1.05e-6
1664828652,C;S;V;F,,0x00c000,-39.7,1.96e-6
1664828653,C;S;V;F,12.5,0x00c000,,2.57e-6
1664828654,C;S;V;F,12.7,0x00c000,-39.6,1.51e-6
1664828655,C;S;V;F,12.9,0x00c000,-39.4,6.06e-7
1664828656,C;S;V;F,12.8,0x00c000,-39.5,4.54e-7
1664828657,C;S;V;F,13.1,0x00c000,-39.1,3.03e-7
1664828658,C;S;V;F,13.1,0x00c000,-39.0,1.51e-7
1664828659,C;S;V;F,13.0,0x00c000,-39.1,1.51e-7
1664828660,C;S;V;F,12.9,0x00c000,-39.2,0.00e-0
1664828664,C;S;V;F,13.3,0x00c000,-39.1,
1664828665,,,,,0.00e-0
1664828666,,13.0,0x00c000,-39.1,
1664828667,C;S;V;F,,0x00c000,-39.0,0.00e-0
1664828668,C;S;V;F,13.4,0x00c000,-38.5,1.51e-7
1664828669,C;S;V;F,13.6,0x00c000,-38.1,0.00e-0
1664828670,C;S;V;F,14.2,0x00c000,,0.00e-0
1664828671,C;S;V;F,14.1,0x00c000,-38.3,0.00e-0
1664828672,C;S;V;F,14.0,0x00c000,-38.1,0.00e-0
1664828673,C;S;V;F,13.9,0x00c000,-38.4,0.00e-0
1664828674,C;S;V;F,13.5,0x00c000,-38.7,0.00e-0
1664828675,C;S;V;F,14.0,0x00c000,-38.4,0.00e-0
1664828676,C;S;V;F,13.8,0x00c000,-38.4,0.00e-0
1664828677,C;S;V;F,14.1,0x00c000,-37.9,0.00e-0
1664828678,C;S;V;F,14.0,0x00c000,-38.5,0.00e-0
1664828679,C;S;V;F,13.7,0x00c000,-38.7,0.00e-0
1664828680,,13.6,0x00c000,-38.4,
1664828681,C;S;V;F,13.9,0x00c000,-38.4,0.00e-0
1664828682,C;S;V;F,13.4,0x00c000,-39.0,0.00e-0
1664828683,C;S;V;F,13.1,0x00c000,-38.8,0.00e-0
1664828684,C;S;V;F,13.6,0x00c000,-38.8,0.00e-0
1664828685,C;S;V;F,,0x00c000,-38.8,0.00e-0
1664828686,C;S;V;F,13.5,0x00c000,-38.7,0.00e-0
1664828687,C;S;V;F,13.5,0x00c000,-38.4,0.00e-0
1664828688,C;S;V;F,13.7,0x00c000,,0.00e-0
1664828689,C;S;V;F,13.9,0x00c000,-38.0,0.00e-0
1664828690,C;S;V;F,14.0,0x00c000,-38.9,0.00e-0
1664828691,C;S;V;F,13.3,0x00c000,-38.7,0.00e-0
1664828692,C;S;V;F,13.5,0x00c000,-38.6,0.00e-0
1664828693,C;S;V;F,14.1,0x00c000,-38.1,0.00e-0
1664828694,C;S;V;F,14.1,0x00c000,-38.0,0.00e-0
1664828695,C;S;V;F,14.1,0x00c000,-37.8,0.00e-0
1664828696,C;S;V;F,14.8,0x00c000,-37.5,0.00e-0
1664828697,C;S;V;F,14.7,0x00c000,-37.2,0.00e-0
1664828698,C;S;V;F,14.6,0x00c000,-37.4,0.00e-0
1664828699,C;S;V;F,14.8,0x00c000,-37.2,
1664828700,,14.6,0x00c000,-37.4,0.00e-0
1664828701,C;S;V;F,14.2,0x00c000,-38.0,0.00e-0
1664828702,C;S;V;F,13.9,0x00c000,-38.3,0.00e-0
1664828703,C;S;V;F,,0x00c000,-38.4,0.00e-0
1664828704,C;S;V;F,13.7,0x00c000,-37.9,0.00e-0
1664828705,C;S;V;F,14.0,0x00c000,-37.3,0.00e-0
1664828706,C;S;V;F,14.2,0x00c000,,0.00e-0
1664828707,C;S;V;F,15.0,0x00c000,-37.1,0.00e-0
1664828708,C;S;V;F,14.6,0x00c000,-36.9,0.00e-0
1664828709,C;S;V;F,15.3,0x00c000,-36.7,0.00e-0
1664828710,,15.3,0x00c000,-36.7,
1664828711,C;S;V;F,14.9,0x00c000,-37.2,0.00e-0
1664828712,C;S;V;F,14.6,0x00c000,-37.5,0.00e-0
1664828713,C;S;V;F,14.4,0x00c000,-37.9,0.00e-0
1664828714,C;S;V;F,,0x00c000,-38.0,0.00e-0
1664828715,C;S;V;F,14.0,0x00c000,-38.2,0.00e-0
1664828716,C;S;V;F,13.7,0x00c000,,0.00e-0
1664828717,C;S;V;F,14.3,0x00c000,-37.8,0.00e-0
1664828718,C;S;V;F,14.2,0x00c000,-37.9,0.00e-0
1664828719,C;S;V;F,14.2,0x00c000,-37.6,0.00e-0
1664828720,C;S;V;F,14.3,0x00c000,-37.6,0.00e-0
1664828721,C;S;V;F,14.5,0x00c000,-37.1,0.00e-0
1664828722,C;S;V;F,14.0,0x00c000,-37.9,0.00e-0
1664828723,C;S;V;F,14.7,0x00c000,-37.6,0.00e-0
1664828724,C;S;V;F,15.2,0x00c000,-36.8,0.00e-0
1664828725,,15.2,0x00c000,-36.7,
1664828726,C;S;V;F,14.6,0x00c000,-37.3,0.00e-0
1664828727,C;S;V;F,14.0,0x00c000,-37.9,0.00e-0
1664828728,C;S;V;F,,0x00c000,,0.00e-0
1664828730,C;S;V;F,13.6,0x00c000,-38.2,0.00e-0
1664828731,,14.0,0x00c000,-37.9,
1664828732,C;S;V;F,14.0,0x00c000,-38.1,0.00e-0
1664828733,C;S;V;F,14.3,0x00c000,-37.3,0.00e-0
1664828734,C;S;V;F,13.6,0x00c000,-38.0,0.00e-0
1664828735,C;S;V;F,,0x00c000,-38.7,0.00e-0
1664828736,C;S;V;F,13.1,0x00c000,-38.0,0.00e-0
1664828737,C;S;V;F,13.8,0x00c000,-37.5,0.00e-0
1664828738,C;S;V;F,14.5,0x00c000,,0.00e-0
1664828739,C;S;V;F,14.6,0x00c000,-37.1,0.00e-0
1664828740,C;S;V;F,14.8,0x00c000,-37.4,0.00e-0
1664828741,C;S;V;F,14.0,0x00c000,-38.1,0.00e-0
1664828742,C;S;V;F,14.0,0x00c000,-37.4,0.00e-0
1664828743,C;S;V;F,13.9,0x00c000,-38.3,0.00e-0
1664828744,C;S;V;F,13.1,0x00c000,-38.7,1.51e-7
1664828745,C;S;V;F,12.9,0x00c000,-39.0,4.54e-7
1664828746,C;S;V;F,13.5,0x00c000,-38.0,3.03e-7
1664828747,C;S;V;F,13.8,0x00c000,-37.8,
1664828748,C;S;V;F,14.2,0x00c000,-37.9,0.00e-0
1664828749,,13.0,0x00c000,-38.5,0.00e-0
1664828750,C;S;V;F,13.2,0x00c000,-39.0,0.00e-0